Weather History for Bartow, FL

Change the Weather History Date:

Saturday, June 15, 2013

  Actual Average Record
Temperature  
Mean Temperature 78 °F -  
Max Temperature 86 °F 92 °F 97 °F (1981)
Min Temperature 71 °F 70 °F 59 °F (1980)
Cooling Degree Days 14    
Growing Degree Days 28 (Base 50)    
Moisture  
Dew Point 73 °F    
Average Humidity 87    
Maximum Humidity 100    
Minimum Humidity 62    
Precipitation  
Precipitation 0.00 in - - ()
Sea Level Pressure  
Sea Level Pressure 30.01 in    
Wind  
Wind Speed 3 mph (ENE)    
Max Wind Speed 13 mph    
Max Gust Speed 18 mph    
Visibility 7 miles    
Events Thunderstorm    
Averages and records for this station are not official NWS values.
T = Trace of Precipitation, MM = Missing Value Source: NWS Daily Summary

Daily Weather History Graph

Daily Weather History Graph

Search for Another Location

Airport:

Trip Planner

Search our weather history database for the weather conditions in past years. The results will help you decide how hot, cold, wet, or windy it might be!

Date:

Astronomy

Jun. 15, 2013 Rise Set
Actual Time 6:30 AM EDT 8:24 PM EDT
Civil Twilight 6:03 AM EDT 8:51 PM EDT
Nautical Twilight 5:31 AM EDT 9:23 PM EDT
Astronomical Twilight 4:57 AM EDT 9:58 PM EDT
Moon 12:34 PM EDT (6/15) 12:26 AM EDT (6/15)
Length of Visible Light 14h 47m
Length of Day
13h 54m
Waxing Crescent, 39% of the Moon is Illuminated
Jun 15
Waxing Crescent
Jun 16
First Quarter
Jun 23
Full
Jun 30
Last Quarter
Jul 8
New

Hourly Weather History & Observations

Time (EDT) Temp. Heat Index Dew Point Humidity Pressure Visibility Wind Dir Wind Speed Gust Speed Precip Events Conditions
12:15 AM 75.2 °F - 71.6 °F 89% 29.97 in 8.0 mi Calm Calm - N/A   Clear
12:35 AM 75.2 °F - 71.6 °F 89% 29.97 in 8.0 mi SSW 3.5 mph - N/A   Clear
12:55 AM 75.2 °F - 73.4 °F 94% 29.97 in 8.0 mi SSW 3.5 mph - N/A   Clear
1:15 AM 73.4 °F - 73.4 °F 100% 29.97 in 7.0 mi SSW 5.8 mph - N/A   Clear
1:35 AM 75.2 °F - 73.4 °F 94% 29.97 in 8.0 mi WSW 4.6 mph - N/A   Clear
1:55 AM 75.2 °F - 73.4 °F 94% 29.97 in 9.0 mi WNW 3.5 mph - N/A   Clear
2:15 AM 75.2 °F - 73.4 °F 94% 29.96 in 8.0 mi West 3.5 mph - N/A   Clear
2:35 AM 75.2 °F - 73.4 °F 94% 29.96 in 7.0 mi Calm Calm - N/A   Partly Cloudy
2:55 AM 73.4 °F - 73.4 °F 100% 29.96 in 6.0 mi Calm Calm - N/A   Clear
3:15 AM 73.4 °F - 73.4 °F 100% 29.95 in 8.0 mi Calm Calm - N/A   Clear
3:35 AM 73.4 °F - 73.4 °F 100% 29.95 in 5.0 mi Calm Calm - N/A   Clear
3:55 AM 73.4 °F - 73.4 °F 100% 29.95 in 6.0 mi Calm Calm - N/A   Scattered Clouds
4:15 AM 71.6 °F - 71.6 °F 100% 29.95 in 7.0 mi Calm Calm - N/A Thunderstorm Scattered Clouds
4:35 AM 73.4 °F - 73.4 °F 100% 29.95 in 7.0 mi Calm Calm - N/A   Mostly Cloudy
4:55 AM 73.4 °F - 73.4 °F 100% 29.96 in 7.0 mi Calm Calm - N/A   Mostly Cloudy
5:15 AM 73.4 °F - 73.4 °F 100% 29.97 in 6.0 mi Calm Calm - N/A   Scattered Clouds
5:35 AM 73.4 °F - 73.4 °F 100% 29.98 in 5.0 mi Calm Calm - N/A   Mostly Cloudy
5:55 AM 73.4 °F - 73.4 °F 100% 29.98 in 6.0 mi Calm Calm - N/A   Mostly Cloudy
6:15 AM 73.4 °F - 73.4 °F 100% 29.99 in 6.0 mi Calm Calm - N/A   Partly Cloudy
6:35 AM 73.4 °F - - N/A% 29.99 in 5.0 mi Calm Calm - N/A   Haze
6:55 AM 73.4 °F - - N/A% 30.00 in 4.0 mi Calm Calm - N/A   Haze
7:15 AM 73.4 °F - - N/A% 30.00 in 5.0 mi South 3.5 mph - N/A   Haze
3:35 PM 84.2 °F 90.9 °F 73.4 °F 70% 30.02 in 7.0 mi Calm Calm - N/A   Mostly Cloudy
3:55 PM 86.0 °F 93.4 °F 73.4 °F 66% 30.01 in 7.0 mi SSE 3.5 mph - N/A   Scattered Clouds
4:15 PM 86.0 °F 91.8 °F 71.6 °F 62% 30.01 in 6.0 mi East 3.5 mph - N/A   Haze
4:35 PM 86.0 °F 91.8 °F 71.6 °F 62% 30.00 in 5.0 mi NE 4.6 mph - N/A Thunderstorm Haze
4:55 PM 86.0 °F 93.4 °F 73.4 °F 66% 30.00 in 7.0 mi ENE 5.8 mph - N/A Thunderstorm Partly Cloudy
5:15 PM 84.2 °F 89.6 °F 71.6 °F 66% 30.01 in 6.0 mi NE 4.6 mph - N/A Thunderstorm Haze
5:35 PM 86.0 °F 91.8 °F 71.6 °F 62% 30.01 in 5.0 mi NNE 4.6 mph - N/A Thunderstorm Unknown
5:55 PM 82.4 °F 88.2 °F 73.4 °F 74% 30.01 in 6.0 mi WNW 8.1 mph - N/A Thunderstorm Haze
6:15 PM 80.6 °F 85.4 °F 73.4 °F 79% 30.02 in 6.0 mi NE 12.7 mph 18.4 mph N/A Thunderstorm Haze
6:35 PM 80.6 °F 86.2 °F 75.2 °F 84% 30.01 in 7.0 mi ENE 6.9 mph - N/A Thunderstorm Mostly Cloudy
6:55 PM 78.8 °F - 73.4 °F 83% 30.03 in 7.0 mi ENE 11.5 mph - N/A Thunderstorm Thunderstorm
7:15 PM 78.8 °F - 73.4 °F 83% 30.04 in 8.0 mi ENE 3.5 mph - N/A Thunderstorm Overcast
7:35 PM 78.8 °F - 73.4 °F 83% 30.06 in 8.0 mi Calm Calm - N/A   Overcast
7:55 PM 78.8 °F - 73.4 °F 83% 30.05 in 7.0 mi NE 4.6 mph - N/A   Overcast
8:15 PM 78.8 °F - 73.4 °F 83% 30.04 in 7.0 mi NE 6.9 mph - N/A   Scattered Clouds
8:35 PM 78.8 °F - 73.4 °F 83% 30.05 in 9.0 mi ENE 9.2 mph - N/A   Scattered Clouds
8:55 PM 78.8 °F - 73.4 °F 83% 30.05 in 9.0 mi ENE 5.8 mph - N/A   Mostly Cloudy
9:15 PM 78.8 °F - 73.4 °F 83% 30.05 in 9.0 mi ENE 8.1 mph - N/A   Mostly Cloudy
9:35 PM 78.8 °F - 73.4 °F 83% 30.05 in 9.0 mi ENE 10.4 mph - N/A   Partly Cloudy
9:55 PM 78.8 °F - 73.4 °F 83% 30.06 in 8.0 mi NE 5.8 mph - N/A   Partly Cloudy
10:15 PM 77.0 °F - 73.4 °F 89% 30.07 in 8.0 mi ENE 8.1 mph - N/A   Mostly Cloudy
10:35 PM 77.0 °F - 73.4 °F 89% 30.07 in 8.0 mi ENE 8.1 mph - N/A   Mostly Cloudy
10:55 PM 77.0 °F - 73.4 °F 89% 30.07 in 8.0 mi ENE 8.1 mph - N/A   Scattered Clouds
11:15 PM 77.0 °F - 73.4 °F 89% 30.08 in 9.0 mi ENE 5.8 mph - N/A   Scattered Clouds
11:35 PM 77.0 °F - 73.4 °F 89% 30.08 in 8.0 mi ENE 6.9 mph - N/A   Mostly Cloudy
11:55 PM 77.0 °F - 73.4 °F 89% 30.09 in 8.0 mi East 8.1 mph - N/A   Mostly Cloudy